SCP
0 0 -0 -0 -0 0 0 0 0 0 0 0 0 0 0 0 0 0 0 0 0 0 0 0 0 0 0 0 0 0 0 0 0 0 0 0 0 0 0 0 0 0 0 0 0 0 0 0 0
0 0 -0 -0 -0 0 0 0 0 0 0 0 0 0 0 0 0 0 0 0 0 0 0 0 0 0 0 0 0 0 0 0 0 0 0 0 0 0 0 0 0 0 0 0 0 0 0 0 0
-0 -0 -0 -0 0 0 0 0 0 0 0 0 0 0 0 0 0 0 0 0 0 0 0 0 0 0 0 0 0 0 0 0 0 0 0 0 0 0 0 0 0 0 0 0 0 0 0 0 0
-0 -0 -0 0 0 0 0 0 0 0 0 0 0 0 0 0 0 0 0 0 0 0 0 0 1 1 0 0 0 0 0 0 0 0 0 0 0 0 0 0 0 0 0 0 0 0 0 0 0
0 0 0 0 0 0 0 0 0 0 0 0 0 0 0 0 0 0 0 0 0 0 0 0 1 1 1 0 0 0 0 0 0 0 0 0 0 0 0 0 0 0 0 0 0 0 0 0 0
0 0 0 0 0 0 0 0 0 0 0 0 0 0 0 0 0 0 0 0 0 0 0 0 1 1 1 1 1 0 0 0 0 0 0 0 0 0 0 0 0 0 0 0 0 0 0 0 0
0 0 0 0 0 0 0 0 0 0 0 0 0 0 0 0 0 0 0 0 0 0 0 0 0 1 1 1 1 1 1 1 0 0 0 0 0 0 0 0 0 0 0 0 0 0 0 0 0
0 0 0 0 0 0 0 0 0 0 0 0 0 0 0 0 0 0 0 0 0 0 0 0 0 1 1 1 1 1 1 1 1 1 0 0 0 0 0 0 0 0 0 0 0 0 0 0 0
0 0 0 0 0 0 0 0 0 0 0 0 0 0 0 0 0 0 0 1 0 0 0 0 0 1 1 1 1 1 1 1 1 1 1 0 0 0 0 0 0 0 0 0 0 0 0 0 0
0 0 0 0 0 0 0 0 0 0 0 0 0 0 0 0 0 0 1 1 1 1 0 0 0 1 1 1 1 1 1 1 1 1 1 1 1 0 0 0 0 0 0 0 0 0 1 1 1
0 0 0 0 0 0 0 0 0 0 0 0 0 0 0 0 0 1 1 2 2 1 1 0 0 0 1 1 0 0 0 1 1 1 1 1 1 1 0 0 0 0 0 0 0 0 1 1 1
0 0 0 0 0 0 0 0 0 0 0 1 1 1 0 0 1 1 1 2 2 2 1 1 0 0 0 0 0 1 1 1 1 1 1 1 1 1 0 0 0 0 0 0 0 0 1 1 1
0 0 0 0 0 0 0 0 0 0 0 1 1 1 1 1 1 1 1 2 2 2 2 1 1 1 1 1 1 1 1 1 1 1 1 1 1 1 0 0 0 0 0 0 0 0 0 0 0
0 0 0 0 0 0 0 0 0 0 1 1 1 1 1 1 1 1 2 2 2 2 2 1 1 1 1 1 1 1 1 1 1 1 1 1 1 1 0 0 0 0 0 0 0 0 0 0 0
0 0 0 0 0 0 0 0 0 0 1 2 2 1 1 1 1 1 1 1 1 1 1 1 1 1 2 2 2 2 1 1 1 1 1 1 1 1 0 0 0 0 0 0 0 0 0 0 0
0 0 0 0 0 0 0 0 0 0 1 2 2 2 1 1 1 1 1 1 1 1 1 1 1 2 2 2 2 2 1 1 1 1 1 1 0 0 0 0 0 0 0 0 0 0 0 0 0
0 0 -0 0 0 0 0 0 0 0 1 1 2 2 1 1 1 1 0 0 0 0 1 1 1 1 2 2 1 1 1 1 1 1 1 1 0 0 0 0 0 0 0 0 0 0 0 0 0
0 0 0 0 0 0 0 0 0 1 1 1 1 2 1 1 0 0 0 0 0 0 0 1 1 1 1 1 1 1 0 0 0 1 1 0 0 0 0 0 0 0 0 0 0 0 0 0 0
0 0 0 0 0 0 0 0 0 0 1 1 1 1 1 0 0 0 0 0 -0 0 0 0 1 0 0 0 0 0 0 0 0 0 0 0 0 0 0 0 0 0 0 0 0 0 0 0 0
0 0 0 0 0 0 0 0 0 0 0 1 1 1 1 0 0 0 0 0 0 0 0 0 0 0 0 0 0 0 0 0 0 0 0 0 0 0 0 0 0 0 0 0 0 0 0 0 0
0 0 0 0 0 0 0 0 0 0 0 0 0 0 0 0 0 0 0 0 0 0 0 0 0 0 0 0 0 0 0 0 0 0 0 0 0 0 0 0 0 0 0 0 0 0 0 0 0
0 0 0 0 0 0 0 0 0 0 0 0 0 0 0 0 0 0 0 0 0 0 0 0 0 0 0 0 0 0 0 0 0 0 0 0 0 0 0 0 0 0 0 0 0 0 0 0 0
0 0 0 0 0 0 0 0 0 0 0 0 0 0 0 0 -0 -0 -0 0 0 0 0 0 0 0 0 0 0 0 0 0 0 0 0 0 0 0 0 0 0 0 0 0 0 0 0 0 0
0 0 0 0 0 0 0 0 0 0 0 0 0 -0 -0 -0 -0 -0 -0 -0 0 0 0 0 0 0 0 0 0 0 0 0 0 0 0 0 0 0 0 0 0 0 0 0 0 0 0 0 0
0 0 0 0 0 0 0 0 0 0 0 0 0 0 0 0 -0 -0 -0 -0 0 0 0 0 0 0 0 -0 0 0 0 0 0 0 0 0 0 0 0 0 0 0 0 0 0 0 0 0 0
0 0 0 0 0 0 0 0 0 0 0 0 0 0 0 0 0 0 0 0 0 0 0 0 0 0 0 0 0 0 0 0 0 0 0 0 0 0 0 0 0 0 0 0 0 0 0 0 0
0 0 0 0 0 0 0 0 0 0 0 0 0 0 0 0 0 0 0 0 0 0 0 0 0 0 0 0 0 0 0 0 0 0 0 0 0 0 0 0 0 0 0 0 0 0 0 0 0
0 0 0 0 0 0 0 0 0 0 0 0 0 0 0 0 0 0 0 0 0 0 0 0 0 0 0 0 0 0 0 0 0 0 0 0 0 0 0 0 0 0 0 0 0 0 0 0 0
0 0 0 0 0 0 0 0 0 0 0 0 0 0 0 0 0 0 0 0 0 0 0 0 0 0 0 0 0 0 0 0 0 0 0 0 0 0 0 0 0 0 0 0 0 0 0 0 0
0 0 0 0 0 0 0 0 0 0 0 0 0 0 0 0 0 0 0 0 0 0 0 0 0 0 0 0 0 0 0 0 0 0 0 0 0 0 0 0 0 0 0 0 0 0 0 0 0
Wind_Speed
8 6 3 1 1 4 4 8 6 11 8 6 9 9 8 4 3 4 4 16 19 17 14 17 20 20 20 19 19 18 17 17 16 15 15 15 14 14 14 16 15 15 14 14 13 13 13 13 12
4 5 2 0 3 3 4 6 8 11 7 1 6 7 7 6 7 10 7 16 20 18 13 15 20 20 20 19 19 19 18 17 17 16 15 15 14 14 14 15 15 14 14 13 13 12 12 12 11
3 3 2 2 2 3 5 6 7 12 12 6 4 4 4 7 9 8 9 18 17 14 11 15 23 22 21 20 18 18 18 17 17 16 16 16 15 14 13 14 14 13 13 12 12 12 11 11 10
2 2 2 2 3 5 5 2 5 12 12 8 3 4 3 6 9 11 17 17 17 12 10 15 22 22 21 20 19 18 18 17 17 16 16 15 15 14 14 13 13 12 12 12 11 11 11 11 10
3 3 2 1 5 4 3 1 6 9 11 9 4 4 3 3 16 21 20 18 17 13 10 13 21 21 21 20 19 18 18 17 16 16 15 14 14 13 13 13 12 12 12 12 11 11 11 10 10
1 3 1 3 3 2 5 5 11 7 4 6 4 3 2 8 18 20 19 17 17 17 13 12 21 21 20 20 20 19 18 18 17 17 16 15 14 13 13 13 13 13 13 13 12 13 12 12 11
3 1 3 4 4 3 6 7 11 12 8 5 2 2 2 9 15 18 17 16 15 16 14 11 13 16 20 20 20 19 18 18 17 17 17 16 16 15 15 14 14 14 14 14 14 14 14 14 13
5 2 3 3 4 4 5 7 7 13 9 6 4 6 7 10 12 15 14 13 14 14 14 12 10 10 10 12 18 19 18 18 17 17 17 17 17 16 16 13 13 15 15 15 15 15 15 14 13
2 2 4 4 4 4 4 5 5 5 6 5 5 7 9 13 14 14 12 11 11 12 11 11 11 9 8 8 14 16 17 17 17 15 18 16 8 8 9 13 15 17 17 17 17 17 16 14 14
5 3 10 8 7 5 7 8 8 6 6 4 5 5 9 14 14 17 17 16 16 14 13 11 12 11 10 10 8 6 8 8 8 7 9 7 5 6 9 10 17 19 19 19 19 18 16 13 7
3 7 9 11 12 6 4 6 6 11 8 11 14 13 14 13 13 16 17 17 17 14 13 12 12 11 11 8 7 5 5 5 7 8 8 5 5 5 6 4 7 11 15 10 11 12 8 6 5
4 9 8 8 7 5 4 4 3 9 14 18 20 19 18 16 16 16 14 14 13 12 12 11 11 11 11 9 7 7 6 5 6 7 8 6 5 5 5 4 4 5 4 6 6 5 6 7 7
4 6 8 8 9 6 6 6 6 6 9 14 15 15 16 16 12 8 5 6 7 8 8 7 7 9 9 8 6 7 5 5 6 6 7 7 6 6 5 3 3 4 4 4 5 5 6 7 7
7 9 12 10 9 6 6 9 8 6 7 14 15 15 13 8 5 6 9 10 9 6 4 3 0 4 4 4 4 4 5 4 5 5 7 8 6 5 4 4 3 3 3 3 4 5 5 5 5
6 9 13 10 8 7 6 10 11 6 7 12 12 10 6 8 12 13 14 15 14 12 12 10 7 6 3 2 3 4 4 4 4 4 5 7 6 6 4 3 3 3 3 3 3 3 3 3 3
6 6 7 13 8 9 2 9 14 5 9 9 8 8 12 14 15 14 14 13 13 11 11 9 7 7 5 3 2 2 3 4 4 4 4 6 6 6 4 3 3 3 2 2 2 2 2 2 3
4 4 10 14 8 5 4 4 9 9 11 11 10 12 15 14 14 12 12 11 10 7 6 5 4 6 6 5 5 4 0 2 4 4 4 5 6 5 4 3 2 2 2 1 2 1 2 2 2
6 6 6 7 8 6 7 8 15 17 20 18 16 15 13 12 10 7 7 6 7 7 5 6 2 4 6 5 6 4 2 1 3 4 5 6 5 6 4 3 3 2 2 1 1 1 1 2 2
6 3 4 6 6 10 15 18 20 20 22 20 16 13 11 9 6 6 6 6 7 10 10 7 4 2 3 3 4 3 2 2 3 4 6 6 6 6 5 4 3 3 2 1 1 1 1 1 1
5 3 4 6 7 8 15 19 18 21 22 19 17 15 13 10 9 8 8 9 10 10 8 5 4 3 3 3 4 3 2 2 2 3 4 6 7 6 5 6 4 3 2 1 1 1 1 1 1
5 3 3 3 5 7 7 10 14 15 17 18 17 14 12 12 11 11 13 12 12 12 10 8 7 6 6 4 3 2 2 2 2 1 2 4 6 7 6 7 5 4 3 2 2 2 3 2 1
4 5 3 3 4 4 4 3 5 8 14 15 13 12 10 9 8 9 11 11 11 10 9 8 8 8 9 8 7 6 4 3 3 2 2 3 4 6 7 7 7 5 4 4 3 3 3 3 2
5 4 3 3 1 2 4 6 1 3 8 9 8 7 7 5 6 8 8 8 7 7 6 5 6 7 8 8 9 8 6 4 4 4 4 3 3 4 5 7 7 6 5 5 4 3 3 3 3
1 6 8 7 6 3 3 4 1 1 1 2 3 4 3 1 3 4 5 5 4 4 4 4 5 6 6 6 6 7 7 6 6 6 6 4 3 3 4 6 6 7 5 5 5 4 4 3 3
6 8 6 7 6 2 1 5 2 3 3 2 2 1 1 1 2 3 3 2 1 1 2 3 4 4 5 5 5 5 5 5 5 5 5 5 4 3 5 4 5 5 6 6 5 5 4 4 4
1 8 5 2 4 2 2 2 2 3 3 2 3 3 2 1 1 1 2 2 2 2 2 1 1 1 2 3 3 3 4 3 3 4 4 4 4 4 5 5 3 4 6 6 5 4 5 4 5
1 1 5 5 0 2 0 2 2 4 5 4 3 2 2 2 2 3 4 5 5 5 5 4 3 2 2 2 2 3 3 3 4 5 4 4 4 5 7 7 5 4 4 5 6 5 6 5 5
3 2 6 5 2 2 1 2 4 7 7 5 3 2 3 3 4 5 6 7 7 7 6 6 5 5 6 5 5 4 5 5 4 4 5 5 5 5 6 7 7 6 5 5 6 5 6 6 6
5 4 4 2 4 3 2 4 4 6 5 3 2 2 3 4 6 7 7 7 6 6 5 5 6 6 7 7 7 6 7 6 5 5 6 6 5 5 5 5 6 7 7 6 5 6 7 7 7
4 3 2 2 2 2 1 4 2 3 2 0 2 4 6 7 8 7 7 6 4 4 5 6 7 8 9 9 8 8 8 7 7 7 7 6 6 6 6 6 6 6 7 6 6 7 7 7 8
Wind_Direction
171 167 159 166 81 51 337 305 322 342 6 29 69 87 89 71 144 168 140 149 144 151 157 155 156 157 157 154 150 149 148 147 146 146 144 142 141 139 140 145 147 147 144 140 139 139 140 141 141
175 173 158 18 78 53 312 290 327 341 336 65 65 65 73 67 83 112 122 151 147 150 154 155 156 157 158 158 157 156 155 155 155 154 152 150 149 148 147 149 151 150 148 147 147 148 149 150 152
180 175 143 70 72 164 232 284 325 331 327 334 55 43 69 107 119 132 147 148 144 149 154 159 157 159 161 162 161 161 161 161 161 160 159 158 156 156 156 156 157 156 157 158 159 161 161 163 164
135 97 50 72 228 222 214 261 0 347 340 344 70 54 40 126 134 138 143 149 148 152 157 162 160 163 165 165 165 166 167 168 168 166 165 165 164 164 164 165 166 165 166 168 169 171 173 175 177
84 87 64 271 244 223 194 171 74 24 333 340 38 76 22 49 124 137 149 155 154 155 160 165 163 166 168 169 170 171 172 173 173 173 173 174 175 175 174 175 176 177 176 178 180 182 185 188 191
62 83 76 263 260 178 172 155 110 94 322 312 353 77 63 126 135 149 156 161 160 159 164 167 168 170 172 173 175 176 178 179 179 180 180 181 184 187 187 188 189 190 190 191 193 195 197 200 203
161 138 231 256 284 228 190 174 146 148 197 233 206 111 143 156 154 158 161 161 161 162 166 171 173 174 176 178 179 181 183 185 186 187 187 189 191 194 197 198 200 202 204 204 205 207 209 209 210
159 114 280 287 303 270 188 185 182 157 184 197 178 166 187 191 159 160 161 161 162 167 172 175 175 176 177 181 185 187 189 191 192 194 195 197 198 200 204 205 210 212 213 214 214 215 216 215 215
121 66 263 256 261 262 198 205 193 166 158 189 204 200 194 174 156 158 162 161 169 174 178 177 177 178 177 180 191 192 195 197 197 200 202 202 205 206 211 215 217 221 221 221 220 220 220 219 221
122 191 246 239 251 263 219 215 185 159 160 200 235 226 169 170 168 168 174 174 178 180 182 183 182 181 179 188 190 192 198 201 201 201 206 203 195 206 214 224 228 229 228 228 226 225 224 223 224
190 221 259 272 268 260 241 239 184 154 186 202 193 191 177 179 183 182 181 179 181 179 180 184 187 185 185 192 184 189 199 198 206 207 208 204 198 208 218 214 237 236 233 229 230 228 222 219 218
274 272 271 277 295 305 280 276 225 191 206 197 189 182 179 186 192 190 181 177 172 171 179 181 188 189 192 193 187 187 197 198 203 209 205 200 206 211 214 213 224 227 217 211 217 215 215 220 226
287 290 306 301 311 314 328 314 294 262 212 178 181 184 188 192 192 181 147 124 142 165 165 171 195 203 196 196 190 186 195 199 202 202 205 201 204 213 217 209 220 225 213 203 208 214 218 221 228
290 307 307 303 309 311 322 314 323 290 167 168 179 190 195 181 140 86 62 61 66 63 60 68 208 251 222 202 187 175 178 190 193 199 202 198 202 208 208 209 215 221 212 204 204 212 217 225 228
307 325 317 299 296 290 346 326 297 289 157 170 179 177 121 78 65 62 58 54 49 44 37 20 356 320 290 212 173 168 164 165 178 184 184 181 184 191 195 201 210 214 206 201 200 211 207 222 229
336 330 299 282 272 268 243 272 287 331 134 147 151 128 88 70 65 64 65 65 62 57 46 18 358 324 308 303 266 194 166 159 168 168 166 169 176 180 180 189 209 206 191 190 200 204 211 228 232
329 278 277 291 290 251 173 254 342 21 87 86 89 91 89 77 65 60 65 73 72 75 89 64 6 320 307 318 320 317 307 154 157 159 165 173 175 173 167 181 196 176 168 192 214 181 194 223 247
279 285 296 311 331 36 68 48 32 38 60 66 69 74 78 73 66 66 66 71 76 66 69 76 28 319 314 321 312 312 300 219 156 163 171 168 169 162 153 152 151 133 123 131 165 163 176 191 217
277 310 331 316 337 55 67 60 47 44 50 50 51 53 56 59 58 59 55 52 62 62 52 48 17 6 304 270 264 268 249 217 171 179 176 172 166 159 150 140 131 127 131 155 173 176 178 221 173
317 334 331 323 355 59 80 71 59 51 53 49 43 33 28 31 36 45 54 53 52 60 55 29 354 319 270 247 251 243 233 226 191 185 184 180 171 166 156 150 152 151 143 140 154 162 160 223 129
317 312 310 323 8 31 88 63 51 51 54 52 46 37 28 27 29 36 48 48 49 45 37 36 25 13 6 345 306 320 14 15 19 264 220 207 183 172 163 164 162 166 161 179 198 188 170 182 186
297 289 314 343 27 345 59 96 51 47 48 46 42 36 27 20 28 38 45 45 46 44 38 30 27 27 23 16 22 31 28 6 330 299 275 255 209 183 176 173 171 173 175 187 205 192 178 165 188
276 298 352 360 51 37 30 99 51 23 42 41 41 43 36 19 31 43 44 42 41 39 41 36 31 31 28 29 31 31 26 3 341 343 345 317 277 236 208 189 178 179 185 196 201 195 196 187 187
317 33 31 41 55 26 337 106 20 353 117 83 59 55 57 48 55 54 50 45 36 27 26 26 30 27 23 28 31 32 21 6 2 357 349 336 318 298 263 220 196 186 187 197 200 200 207 214 215
47 62 23 1 6 300 360 93 172 185 177 145 146 171 209 157 99 75 63 57 48 31 27 31 36 21 13 21 24 24 13 357 350 339 337 338 333 327 320 271 219 198 194 196 195 200 216 220 224
338 116 133 222 244 278 11 106 179 202 219 208 196 200 200 189 159 152 180 206 224 218 200 175 90 20 3 10 3 2 359 346 327 324 320 321 316 305 319 318 268 227 205 202 200 206 213 215 223
56 108 172 156 304 87 168 106 214 225 236 234 219 194 186 197 203 213 223 224 224 221 215 205 196 216 244 254 268 284 303 310 309 312 313 311 314 319 331 329 322 283 242 222 208 212 217 218 223
114 120 56 59 47 352 299 222 217 210 225 225 214 202 216 222 230 238 240 235 227 216 208 200 200 212 227 233 238 241 248 258 270 288 296 299 305 315 325 328 327 316 287 250 226 220 221 219 226
13 29 68 94 134 132 308 281 234 204 203 196 221 246 259 267 266 264 264 260 248 228 213 213 219 226 237 239 239 243 247 247 251 261 270 275 282 292 301 307 312 313 305 286 257 238 226 221 226
54 33 89 100 360 79 121 286 285 176 182 213 317 318 312 304 297 298 303 308 300 268 246 242 241 239 243 243 241 243 247 246 246 250 257 261 269 275 278 285 292 295 301 300 288 271 253 231 224